| time (UTC) | temp F | wind direction | speed knots | gust knots | rain 1hr in | rain 24hr in | rain mn in | humidity % | barometer mb |
| 20260505031554 | 40 | 227 | 7.0 | 13.0 | 0.00 | 0.00 | 0.00 | 92 | 1008.0 |
| 20260505030114 | 40 | 240 | 7.0 | 12.2 | 0.00 | 0.00 | 0.00 | 92 | 1007.8 |
| 20260505024608 | 40 | 242 | 6.1 | 13.0 | 0.00 | 0.01 | 0.00 | 92 | 1007.7 |
| 20260505023052 | 40 | 255 | 8.7 | 14.8 | 0.00 | 0.01 | 0.00 | 92 | 1007.7 |
| 20260505021558 | 40 | 248 | 8.7 | 13.9 | 0.00 | 0.01 | 0.00 | 92 | 1007.4 |
| 20260505020108 | 40 | 241 | 8.7 | 13.9 | 0.00 | 0.01 | 0.00 | 92 | 1007.3 |
| 20260505014603 | 40 | 227 | 5.2 | 16.5 | 0.00 | 0.04 | 0.00 | 92 | 1007.2 |
| 20260505013058 | 40 | 248 | 8.7 | 14.8 | 0.00 | 0.04 | 0.00 | 91 | 1007.1 |
| 20260505011601 | 41 | 279 | 7.0 | 13.9 | 0.00 | 0.04 | 0.00 | 91 | 1007.0 |
| 20260505010112 | 41 | 226 | 6.1 | 12.2 | 0.00 | 0.04 | 0.00 | 90 | 1006.9 |
| 20260505004629 | 41 | 288 | 6.1 | 13.9 | 0.00 | 0.05 | 0.00 | 90 | 1006.9 |
| 20260505003100 | 41 | 263 | 5.2 | 16.5 | 0.00 | 0.05 | 0.00 | 91 | 1006.9 |
| 20260505001555 | 41 | 216 | 7.0 | 14.8 | 0.00 | 0.05 | 0.00 | 89 | 1006.8 |
| 20260505000113 | 42 | 244 | 8.7 | 14.8 | 0.00 | 0.05 | 0.00 | 89 | 1006.4 |
| 20260504234554 | 42 | 237 | 7.0 | 13.9 | 0.00 | 0.07 | 0.00 | 88 | 1006.0 |
| 20260504233053 | 42 | 234 | 7.8 | 14.8 | 0.00 | 0.07 | 0.00 | 87 | 1005.8 |
| 20260504231621 | 42 | 252 | 11.3 | 18.2 | 0.00 | 0.07 | 0.00 | 86 | 1005.9 |
| 20260504230054 | 43 | 241 | 11.3 | 22.6 | 0.00 | 0.07 | 0.00 | 85 | 1005.8 |
| 20260504224613 | 43 | 170 | 13.0 | 24.3 | 0.00 | 0.11 | 0.00 | 85 | 1005.6 |
| 20260504223057 | 43 | 225 | 15.6 | 26.1 | 0.00 | 0.11 | 0.00 | 83 | 1005.3 |
| 20260504221641 | 44 | 235 | 14.8 | 25.2 | 0.00 | 0.11 | 0.00 | 82 | 1005.1 |
| 20260504220056 | 44 | 241 | 14.8 | 24.3 | 0.00 | 0.11 | 0.00 | 81 | 1005.1 |
| 20260504214554 | 45 | 279 | 17.4 | 26.1 | 0.00 | 0.19 | 0.00 | 79 | 1005.0 |
| 20260504213101 | 45 | 210 | 17.4 | 30.4 | 0.00 | 0.19 | 0.00 | 79 | 1004.8 |
| 20260504211554 | 46 | 235 | 14.8 | 33.0 | 0.00 | 0.19 | 0.00 | 77 | 1004.7 |
| 20260504210058 | 46 | 224 | 15.6 | 33.0 | 0.00 | 0.19 | 0.00 | 75 | 1004.4 |
| 20260504204554 | 47 | 158 | 17.4 | 33.9 | 0.00 | 0.35 | 0.00 | 72 | 1004.3 |
| 20260504203053 | 47 | 229 | 18.2 | 31.3 | 0.00 | 0.35 | 0.00 | 71 | 1004.0 |
| 20260504201555 | 46 | 233 | 19.1 | 30.4 | 0.00 | 0.35 | 0.00 | 71 | 1003.7 |
| 20260504200056 | 46 | 25 | 17.4 | 34.8 | 0.00 | 0.35 | 0.00 | 73 | 1003.5 |
| 20260504194602 | 47 | 293 | 19.1 | 33.0 | 0.00 | 0.50 | 0.00 | 72 | 1003.3 |
| 20260504193055 | 48 | 215 | 19.1 | 28.7 | 0.00 | 0.50 | 0.00 | 69 | 1003.3 |
| 20260504191615 | 51 | 239 | 12.2 | 22.6 | 0.00 | 0.50 | 0.00 | 62 | 1002.9 |
| 20260504190058 | 52 | 214 | 18.2 | 29.5 | 0.00 | 0.50 | 0.00 | 57 | 1002.9 |
| 20260504184603 | 56 | 275 | 15.6 | 31.3 | 0.00 | 0.60 | 0.00 | 39 | 1002.6 |
| 20260504183100 | 55 | 244 | 15.6 | 27.8 | 0.00 | 0.60 | 0.00 | 40 | 1002.6 |
| 20260504181555 | 55 | 264 | 16.5 | 27.8 | 0.00 | 0.60 | 0.00 | 43 | 1002.6 |
| 20260504180054 | 55 | 292 | 13.9 | 26.9 | 0.00 | 0.60 | 0.00 | 47 | 1002.5 |
| 20260504174553 | 54 | 281 | 12.2 | 32.2 | 0.00 | 0.62 | 0.00 | 52 | 1002.2 |
| 20260504173055 | 54 | 175 | 13.9 | 24.3 | 0.00 | 0.62 | 0.00 | 53 | 1002.0 |
| 20260504171556 | 53 | 230 | 13.9 | 27.8 | 0.00 | 0.62 | 0.00 | 52 | 1001.8 |
| 20260504170107 | 54 | 312 | 14.8 | 25.2 | 0.00 | 0.62 | 0.00 | 54 | 1001.7 |
| 20260504140104 | 44 | 232 | 14.8 | 26.1 | 0.00 | 0.62 | 0.00 | 84 | 1000.6 |
| 20260504081555 | 36 | 283 | 15.6 | 26.9 | 0.00 | 0.62 | 0.00 | 91 | 990.3 |
| 20260504060105 | 36 | 271 | 12.2 | 28.7 | 0.00 | 0.62 | 0.00 | 92 | 985.1 |
| 20260504050123 | 36 | 289 | 13.0 | 26.1 | 0.00 | 0.62 | 0.00 | 92 | 983.1 |
| 20260504044555 | 37 | 270 | 11.3 | 26.9 | 0.00 | 0.62 | 0.00 | 92 | 982.5 |
| 20260504043101 | 37 | 302 | 11.3 | 22.6 | 0.00 | 0.62 | 0.00 | 92 | 982.0 |
| 20260504041559 | 38 | 276 | 10.4 | 20.9 | 0.00 | 0.62 | 0.00 | 92 | 981.4 |
| 20260504040113 | 38 | 250 | 10.4 | 21.7 | 0.00 | 0.62 | 0.00 | 92 | 981.0 |
| 20260504034611 | 38 | 227 | 7.8 | 17.4 | 0.00 | 0.62 | 0.00 | 92 | 980.1 |
| 20260504033059 | 38 | 260 | 8.7 | 17.4 | 0.00 | 0.62 | 0.00 | 93 | 979.4 |